FWO584 Weather Reports


time (UTC)temp
F
wind
direction
speed
knots
gust
knots
rain 1hr
in
rain 24hr
in
rain mn
in
humidity
%
barometer
mb
20260506223404 56 325 0.9 4.3 0.00 0.09 0.00 86 1013.5
20260506213905 57 284 0.0 1.7 0.00 0.09 0.09 86 1013.4
20260506213405 57 284 0.9 2.6 0.00 0.09 0.09 86 1013.5
20260506210904 58 252 0.0 0.0 0.00 0.09 0.09 86 1013.3
20260506210405 58 252 0.0 0.0 0.00 0.09 0.09 86 1013.4
20260506203904 58 265 0.0 0.9 0.00 0.09 0.09 86 1013.2
20260506203404 58 337 0.9 2.6 0.00 0.09 0.09 86 1013.1
20260506200905 58 283 0.9 2.6 0.07 0.09 0.09 85 1012.7
20260506200404 58 324 0.9 2.6 0.08 0.09 0.09 85 1012.7
20260506193904 60 245 0.9 2.6 0.08 0.09 0.09 84 1012.3
20260506193405 60 275 1.7 2.6 0.08 0.09 0.09 83 1012.2
20260506190905 60 308 1.7 2.6 0.01 0.02 0.02 81 1011.9
20260506190403 60 295 0.9 4.3 0.00 0.01 0.01 81 1011.8
20260506183905 61 267 0.9 2.6 0.00 0.01 0.01 81 1011.3
20260506180904 61 148 5.2 8.7 0.00 0.01 0.01 80 1010.9
20260506180405 61 150 7.0 14.8 0.00 0.01 0.01 80 1010.8
20260506173904 61 148 6.1 10.4 0.00 0.01 0.01 79 1010.7
20260506173404 61 145 5.2 13.9 0.00 0.01 0.01 78 1010.6
20260506170403 62 154 11.3 17.4 0.00 0.01 0.01 77 1010.5
20260506163905 63 160 7.8 13.9 0.00 0.01 0.01 75 1010.4
20260506163404 63 161 8.7 18.2 0.00 0.01 0.01 75 1010.3
20260506160904 63 129 8.7 13.0 0.00 0.01 0.01 75 1010.1
20260506160405 63 133 8.7 18.2 0.00 0.01 0.01 75 1010.1
20260506153905 64 149 12.2 19.1 0.00 0.01 0.01 71 1010.2
20260506150905 63 138 8.7 15.6 0.00 0.01 0.01 70 1010.1
20260506150405 64 144 11.3 18.2 0.00 0.01 0.01 71 1010.0
20260506143905 64 131 9.6 19.1 0.00 0.01 0.01 70 1010.2
20260506143405 64 157 11.3 20.0 0.00 0.01 0.01 69 1010.3
20260506140904 63 140 10.4 20.0 0.00 0.01 0.01 71 1010.3
20260506140404 64 138 12.2 18.2 0.00 0.01 0.01 70 1010.5
20260506133904 65 145 10.4 15.6 0.00 0.01 0.01 67 1010.7
20260506133404 65 169 8.7 17.4 0.00 0.01 0.01 68 1010.8
20260506130403 63 149 11.3 18.2 0.00 0.01 0.01 70 1011.1
20260506123905 64 164 11.3 18.2 0.00 0.01 0.01 68 1011.2
20260506123405 64 164 12.2 20.9 0.00 0.01 0.01 68 1011.2
20260506120405 64 111 9.6 18.2 0.00 0.01 0.01 68 1011.1
20260506113906 63 123 9.6 15.6 0.00 0.01 0.01 71 1011.1
20260506113404 63 132 12.2 20.0 0.00 0.01 0.01 70 1011.1
20260506110904 62 138 11.3 17.4 0.00 0.01 0.01 74 1011.4
20260506110404 62 118 8.7 15.6 0.00 0.01 0.01 75 1011.4
20260506103905 62 124 11.3 18.2 0.00 0.01 0.01 73 1011.6
20260506103405 63 114 10.4 15.6 0.00 0.01 0.01 73 1011.7
20260506100905 62 149 11.3 17.4 0.00 0.01 0.01 73 1011.8
20260506100404 63 151 7.8 18.2 0.00 0.01 0.01 72 1011.8
20260506093904 64 167 9.6 13.0 0.00 0.01 0.01 68 1011.8
20260506093403 64 155 10.4 14.8 0.00 0.01 0.01 68 1011.7
20260506090905 64 130 8.7 15.6 0.00 0.01 0.01 68 1011.4
20260506090405 64 152 9.6 14.8 0.00 0.01 0.01 68 1011.4
20260506083905 64 162 4.3 7.0 0.00 0.01 0.01 70 1011.3
20260506083407 63 166 7.8 13.9 0.00 0.01 0.01 70 1011.3
20260506080905 60 223 1.7 6.1 0.00 0.01 0.01 80 1011.3
20260506073405 57 255 0.9 2.6 0.00 0.01 0.01 86 1011.1
20260506070904 55 307 0.9 2.6 0.00 0.01 0.01 87 1011.1
20260506070405 54 311 1.7 2.6 0.00 0.01 0.01 87 1011.0
20260506060905 47 143 0.0 0.0 0.00 0.02 0.01 87 1011.0
20260506050904 45 0 0.0 0.9 0.00 0.02 0.01 87 1010.5
20260506050404 45 0 1.7 2.6 0.00 0.02 0.01 87 1010.4
20260506043905 45 0 0.0 1.7 0.00 0.02 0.01 87 1010.1
20260506043405 45 0 0.9 2.6 0.00 0.02 0.01 87 1010.2
20260506040904 46 0 0.0 0.0 0.00 0.02 0.01 87 1010.1
20260506040404 46 0 0.0 0.0 0.00 0.02 0.01 87 1010.1
20260506033905 46 0 0.0 0.0 0.00 0.02 0.01 87 1010.1
20260506030905 46 0 0.0 0.0 0.00 0.02 0.01 87 1010.1
20260506030405 47 0 0.0 0.0 0.00 0.02 0.01 86 1010.1
20260506023904 47 0 0.0 0.0 0.00 0.02 0.01 86 1010.0
20260506020905 48 0 0.0 0.9 0.00 0.02 0.01 86 1009.9
20260506020405 48 0 1.7 2.6 0.00 0.02 0.01 86 1009.9
20260506013904 49 0 0.0 0.0 0.00 0.02 0.01 86 1009.7
20260506013404 49 0 0.0 1.7 0.00 0.02 0.01 86 1009.8
20260506010904 50 0 0.0 1.7 0.01 0.02 0.01 86 1009.7
20260506010404 50 0 0.9 2.6 0.01 0.02 0.01 86 1009.8
20260506003905 51 0 0.0 1.7 0.01 0.02 0.01 85 1010.0
20260506003404 51 0 0.0 2.6 0.01 0.02 0.01 85 1010.1
20260506000904 52 202 0.0 2.6 0.00 0.01 0.00 85 1010.0
20260506000404 52 315 1.7 4.3 0.00 0.01 0.00 85 1010.1
20260505233904 53 127 0.0 2.6 0.00 0.01 0.00 85 1009.9
20260505233404 53 120 2.6 2.6 0.00 0.01 0.00 85 1009.9
20260505230904 53 171 1.7 4.3 0.00 0.01 0.00 84 1010.6
20260505230404 53 154 0.0 0.0 0.00 0.01 0.00 84 1010.6